Weather in Niagara Falls

United States     43°05′43″N   79°03′20″W
В апреле 2022 года жителям России запретили посещать сайт meteo.paraplan.net по решению Генеральной прокуратуры. Аудитория сайта уменьшилась в 10 раз. Владельцы сайта не видят смысла в поддержке погодного сервера в таких условиях. Сайт будет закрыт в октябре.
temp.,
°C
wind,
m/s
gust,
m/s
humid.,
%
clouds,
%
prec.,
mm/h
press.,
hPa
HPBL,
m
4 october, tue
tue423:00+9e1146100 0.0 102652
02:00+9ese1147100 0.0 102534
05:00+8ene1150100 0.0 102420
08:00+9nne0151100 0.0 102432
11:00+14nne2346100 0.0 1023586
14:00+18n3333100 0.0 1021952
17:00+17nne333590 0.0 1020702
20:00+13nne234989 0.0 102067
5 october, wed
wed523:00+11ene11455 0.0 102017
02:00+10nnw11434 0.0 102010
05:00+10nnw01450 0.0 101910
08:00+10sw11555 0.0 101924
11:00+16w11490 0.0 1019419
14:00+21w22443 0.0 1017904
17:00+20sw33485 0.0 1016550
20:00+15ssw35645 0.0 1017155
6 october, thu
thu623:00+14ssw367318 0.0 1017174
02:00+14ssw387992 0.0 1016211
05:00+14ssw3784100 0.0 1016174
08:00+14ssw3877100 0.0 1016245
11:00+19sw4753100 0.0 1015550
14:00+20sw5851100 0.0 1014701
17:00+19sw5105357 0.0 1013646
20:00+17sw4116290 0.0 1013544
7 october, fri
fri723:00+17wsw51364100 0.0 1012711
02:00+14nw377111 0.1 1012425
05:00+12nw587696 0.0 1014682
08:00+9nw5768100 0.1 1016977
11:00+9nw5858100 0.0 10191518
14:00+9nw6854100 0.1 10191578
17:00+8nw5856100 0.0 10201691
20:00+8nw5755100 0.1 10221508
8 october, sat
sat823:00+7wnw4749100 0.0 10231258
02:00+5wnw38575 0.0 1023597
05:00+3w367069 0.0 1023235
08:00+3w377328 0.0 1024245
11:00+8w5747100 0.0 10231294
14:00+11wsw683758 0.0 10211812
17:00+12sw6113998 0.0 10192021
20:00+11wsw6124684 0.0 10181040